Wind_Speed
9 9 8 9 9 11 12 10 10 10 10 9 10 11 10 8 9 8 9 10 10 9 8 5 2 3 3 5 5 5 6 11 7 6 4 4 5 3 0 1 1 3 2
5 6 7 7 9 8 9 9 9 9 11 11 11 11 10 9 9 8 7 8 9 8 7 7 6 4 4 5 6 5 4 5 5 8 10 8 6 5 3 2 2 2 1
4 5 5 5 7 8 9 9 11 11 11 10 10 10 11 10 8 8 7 8 7 8 8 7 6 6 6 5 9 9 5 2 8 6 8 13 11 10 8 5 3 3 4
4 5 5 7 9 11 11 11 10 12 12 10 11 10 10 9 9 9 9 8 7 5 5 5 5 5 7 9 8 10 6 3 1 7 13 15 14 13 11 10 8 5 4
4 5 6 9 11 11 11 11 12 11 11 10 11 11 11 11 10 10 8 8 8 7 7 6 5 7 7 8 8 7 6 6 7 8 11 13 12 13 12 11 10 10 8
4 6 8 10 11 12 11 11 12 11 10 9 10 12 11 10 10 8 9 9 8 10 9 9 8 7 7 8 7 7 8 6 5 5 5 6 9 7 15 14 12 12 11
2 5 10 13 13 11 10 11 11 11 10 11 12 12 11 12 14 11 8 9 10 9 10 10 10 11 10 8 7 6 7 8 7 6 7 9 7 7 7 12 19 17 15
7 10 11 12 11 10 10 11 11 12 12 12 13 14 15 14 16 15 13 12 10 10 10 12 12 12 12 11 11 11 9 9 10 9 9 9 10 8 9 10 11 11 19
9 11 12 10 8 9 11 11 11 12 12 13 13 13 13 14 14 17 15 15 14 13 12 11 14 15 13 13 13 12 13 13 12 13 12 12 14 15 13 12 12 12 13
13 10 7 6 6 8 9 8 10 11 15 16 16 17 17 16 14 15 18 20 20 17 17 16 14 18 18 16 15 15 14 15 15 12 13 14 15 15 13 14 14 13 13
11 6 4 4 6 8 7 10 11 13 16 17 19 19 18 19 19 16 17 18 20 23 18 21 20 16 18 20 16 16 17 16 17 16 14 14 15 17 16 14 11 10 11
7 6 3 3 6 7 10 12 13 16 17 15 23 22 21 19 20 21 18 18 19 18 21 21 23 22 20 22 23 22 21 21 19 17 17 18 17 19 19 19 17 15 11
6 5 4 4 5 7 11 14 15 19 15 18 23 23 31 23 18 21 23 22 19 20 19 20 22 22 24 26 26 27 27 24 22 23 22 21 22 23 22 21 20 19 19
8 6 3 4 6 8 10 12 15 15 17 19 22 24 25 24 20 21 22 24 24 23 23 22 22 22 23 26 28 28 28 30 27 26 25 25 26 27 27 26 24 24 24
7 4 4 7 5 6 10 11 15 17 17 20 24 25 25 24 22 20 19 23 26 26 27 26 25 26 26 25 25 29 30 31 31 32 31 31 32 31 31 30 30 30 30
6 2 6 5 5 8 8 10 14 17 19 22 26 28 31 28 24 21 18 19 23 28 33 32 32 29 28 29 31 33 33 34 37 39 39 39 40 38 35 33 35 38 38
4 1 4 5 6 5 8 12 17 18 20 26 29 27 29 28 28 27 28 26 22 21 26 32 29 29 31 34 35 34 33 36 37 38 40 42 42 42 42 41 41 42 43
4 3 3 3 3 7 9 14 21 17 22 29 35 35 29 28 28 30 29 25 27 24 31 25 27 30 33 34 32 30 30 30 32 37 37 38 41 43 43 42 41 41 44
7 6 6 8 7 9 13 16 21 26 22 27 35 33 31 28 27 29 27 26 26 24 31 34 30 30 33 34 33 34 34 31 31 34 37 39 41 42 42 43 46 47 46
11 9 8 7 9 12 15 20 20 26 27 29 35 36 33 31 31 26 27 28 24 25 28 30 27 34 36 39 40 43 44 47 37 37 41 41 42 43 43 45 50 48 51
14 14 11 11 11 14 16 20 22 26 31 34 37 40 37 31 28 26 25 29 33 29 28 26 27 34 39 39 48 46 44 42 40 43 48 50 52 50 48 50 51 53 55
17 18 16 14 12 14 18 23 26 27 31 33 38 38 32 30 30 30 27 30 31 32 34 35 36 34 39 42 49 49 46 44 49 50 52 54 55 55 58 62 63 62 62
25 24 21 17 15 17 20 25 29 31 32 36 39 40 33 33 32 31 30 30 34 37 37 40 41 43 48 51 49 49 52 54 54 51 48 47 52 54 58 60 60 62 63
22 20 20 18 19 19 23 27 31 33 35 39 42 42 35 35 35 35 38 36 36 40 42 44 46 46 44 50 51 52 51 51 46 47 52 53 53 52 51 48 46 47 48
28 24 22 21 21 22 26 29 34 35 40 45 45 42 36 36 39 40 39 39 41 43 43 45 45 45 45 47 50 49 50 50 52 48 52 50 49 44 41 38 41 44 44
34 30 27 26 25 27 29 33 35 38 42 47 44 39 37 39 42 43 41 43 44 45 42 43 49 45 46 46 49 51 55 52 48 46 46 41 41 41 37 37 39 41 42
Wind_Direction
87 79 70 59 48 35 32 25 20 15 23 16 13 12 37 18 26 28 22 25 31 31 36 43 25 358 322 310 303 306 291 233 229 257 259 297 291 307 257 199 135 111 125
89 67 58 41 40 31 23 10 357 1 6 5 2 1 8 23 17 20 15 17 30 30 31 32 28 20 332 320 313 312 310 171 219 255 256 253 247 245 238 215 265 256 202
65 61 49 42 33 26 17 1 352 351 351 354 357 357 2 359 11 358 16 5 14 18 16 19 16 0 2 334 334 311 275 235 222 9 335 232 222 230 222 222 219 270 266
72 51 23 13 12 2 0 349 353 340 341 349 347 354 347 339 1 356 358 353 351 4 7 353 348 5 349 344 344 346 12 324 359 352 333 227 218 224 228 226 233 229 257
45 22 8 5 349 340 330 331 331 331 335 342 339 345 342 336 340 350 354 332 343 331 325 331 336 336 349 346 336 340 346 334 325 322 337 214 230 230 237 236 242 249 246
16 3 350 342 337 333 322 320 317 317 327 329 332 335 327 331 320 339 353 331 318 317 319 322 313 308 327 331 334 333 331 340 326 324 318 252 231 257 248 252 250 250 252
330 323 335 329 332 332 335 331 317 320 321 318 316 307 308 319 318 333 331 328 327 309 307 306 305 294 299 312 304 302 302 303 307 317 326 314 324 288 244 244 247 248 249
320 321 318 326 328 337 348 342 338 325 320 312 308 315 315 309 313 318 318 325 315 315 301 298 294 290 293 299 300 294 287 282 284 288 291 297 292 286 287 274 262 263 253
301 302 315 317 323 336 348 340 330 322 317 310 304 300 302 306 306 307 311 307 303 299 291 283 286 290 289 290 287 284 280 274 275 280 281 284 286 284 279 274 269 269 267
300 295 304 319 315 326 320 335 327 326 328 319 314 307 298 293 296 300 304 304 305 296 295 290 285 290 291 284 283 280 277 283 281 278 284 289 287 283 280 278 270 264 267
302 311 311 288 288 300 307 319 327 340 330 335 334 318 289 288 289 289 289 290 298 302 297 297 290 280 284 285 282 279 282 282 282 281 278 279 277 271 265 258 271 273 267
290 290 278 267 280 282 302 326 341 335 352 360 3 355 334 295 280 283 282 284 286 284 293 292 290 290 287 282 281 281 278 280 281 283 291 286 276 270 265 256 251 254 254
255 250 254 279 275 296 306 326 336 350 358 357 351 349 360 341 296 287 288 284 283 282 279 282 286 286 291 291 288 283 280 277 278 277 277 282 282 274 268 267 270 273 278
227 230 243 267 268 313 326 334 343 350 341 344 347 345 349 353 341 307 289 289 288 289 287 285 278 281 287 296 298 293 281 276 277 279 281 280 278 279 281 275 274 276 276
193 183 260 242 295 314 318 332 331 337 339 343 351 350 344 343 347 337 303 290 292 294 296 299 287 285 284 282 283 281 280 279 276 277 283 285 285 286 283 280 278 277 279
194 208 224 254 284 313 332 339 343 344 352 359 356 354 349 342 341 336 316 309 303 295 294 288 289 286 294 285 278 279 273 274 279 280 279 280 280 279 276 273 273 274 272
230 198 232 278 298 301 353 1 354 346 353 353 348 343 344 340 334 334 330 318 305 303 300 293 285 286 294 297 296 297 279 270 272 272 272 273 274 273 271 271 271 270 271
222 258 252 289 334 343 352 1 359 359 359 353 352 343 334 340 332 326 329 317 322 317 312 297 287 284 287 289 295 292 280 282 286 281 278 280 280 277 279 273 272 276 276
226 252 287 315 315 330 337 343 357 350 344 341 349 342 335 327 327 318 309 310 312 318 302 308 295 287 294 300 299 304 304 292 286 285 285 285 285 283 281 279 279 284 286
219 232 272 293 306 313 324 329 331 346 343 338 343 338 328 321 315 310 308 311 313 305 305 295 302 304 304 298 300 302 303 300 292 290 287 285 279 278 279 283 281 285 287
220 231 254 275 288 314 326 327 325 331 335 336 336 334 332 321 316 310 308 305 308 309 310 307 300 293 297 299 295 296 298 293 278 285 289 284 283 282 280 279 280 281 281
244 255 269 283 295 306 320 324 324 326 330 327 328 327 327 323 317 310 308 308 308 306 301 301 299 298 294 288 290 295 294 287 294 289 285 283 282 281 281 282 281 284 283
244 257 264 273 287 298 309 316 316 323 322 322 324 326 320 319 316 312 311 307 305 305 301 295 298 283 288 291 290 288 290 289 287 285 285 289 293 291 290 289 289 287 284
255 250 255 268 283 297 306 309 311 316 319 321 320 323 320 319 315 315 314 313 307 303 299 296 298 297 289 283 285 289 291 290 290 292 294 294 294 292 288 285 282 279 279
255 252 255 268 281 293 296 302 309 313 319 320 318 319 315 312 313 312 310 306 303 300 294 297 295 293 292 292 295 297 292 291 293 298 295 293 289 285 282 280 280 281 278
252 250 256 264 272 279 292 298 303 310 317 319 320 318 317 309 306 306 308 304 302 300 297 294 296 292 295 297 297 294 296 299 296 294 290 291 287 283 279 278 281 283 283
Height
5928 5928 5927 5927 5925 5923 5922 5922 5922 5921 5920 5919 5916 5915 5915 5913 5912 5911 5909 5907 5906 5905 5903 5901 5901 5901 5900 5900 5900 5898 5897 5898 5899 5900 5900 5901 5902 5902 5902 5902 5902 5901 5902
5929 5929 5928 5928 5926 5926 5924 5924 5923 5922 5921 5920 5918 5917 5914 5914 5913 5911 5909 5907 5906 5905 5904 5903 5901 5900 5899 5899 5899 5897 5898 5897 5898 5898 5898 5899 5900 5901 5901 5901 5902 5901 5902
5930 5930 5930 5929 5928 5927 5925 5924 5923 5922 5921 5920 5919 5917 5916 5913 5913 5911 5910 5908 5907 5905 5903 5903 5902 5901 5899 5898 5896 5897 5895 5895 5895 5894 5894 5896 5897 5899 5899 5899 5900 5900 5901
5930 5930 5930 5929 5928 5926 5926 5925 5923 5922 5921 5920 5918 5917 5916 5914 5913 5912 5910 5908 5907 5906 5903 5902 5901 5900 5898 5897 5896 5894 5894 5894 5894 5892 5892 5892 5894 5895 5896 5897 5898 5898 5899
5930 5930 5930 5930 5928 5927 5925 5923 5922 5921 5920 5919 5918 5918 5916 5914 5912 5911 5911 5908 5906 5904 5902 5901 5900 5899 5897 5896 5895 5895 5894 5892 5892 5891 5891 5890 5892 5893 5895 5895 5896 5897 5897
5929 5930 5930 5929 5927 5926 5924 5923 5922 5920 5920 5918 5917 5916 5915 5914 5913 5911 5911 5908 5906 5904 5902 5901 5900 5898 5897 5897 5896 5895 5895 5893 5892 5890 5890 5890 5891 5891 5893 5893 5894 5894 5895
5930 5930 5929 5928 5926 5925 5924 5923 5922 5920 5919 5918 5916 5914 5912 5911 5910 5909 5910 5908 5906 5904 5902 5900 5899 5898 5897 5895 5895 5894 5894 5894 5892 5891 5890 5889 5889 5888 5888 5889 5890 5890 5891
5928 5928 5927 5926 5925 5924 5923 5921 5920 5918 5917 5915 5914 5913 5912 5911 5908 5908 5907 5907 5905 5902 5900 5898 5897 5896 5896 5895 5894 5893 5892 5892 5891 5889 5889 5889 5888 5888 5886 5886 5887 5887 5888
5928 5927 5926 5925 5924 5923 5922 5920 5918 5916 5914 5912 5910 5909 5908 5908 5907 5905 5905 5904 5903 5901 5900 5897 5895 5893 5893 5893 5892 5891 5891 5890 5889 5888 5886 5886 5886 5886 5885 5885 5884 5884 5884
5926 5925 5925 5923 5922 5921 5919 5918 5917 5915 5912 5909 5907 5906 5905 5903 5902 5902 5900 5899 5898 5897 5896 5895 5893 5890 5890 5890 5889 5889 5888 5888 5887 5886 5885 5885 5884 5883 5882 5882 5880 5881 5881
5923 5923 5921 5920 5919 5918 5918 5917 5914 5912 5909 5907 5904 5901 5898 5897 5896 5897 5897 5896 5894 5891 5892 5891 5889 5889 5887 5885 5886 5886 5885 5883 5883 5882 5881 5880 5879 5879 5879 5878 5879 5878 5878
5921 5920 5919 5917 5917 5917 5916 5914 5911 5909 5906 5904 5900 5896 5894 5892 5891 5891 5891 5891 5891 5891 5888 5886 5886 5884 5883 5881 5880 5880 5880 5879 5878 5878 5877 5877 5876 5876 5875 5874 5874 5874 5874
5919 5918 5916 5915 5916 5915 5914 5912 5909 5906 5903 5900 5897 5893 5888 5885 5884 5885 5884 5884 5885 5885 5886 5884 5882 5880 5878 5875 5875 5875 5874 5873 5872 5872 5871 5871 5870 5870 5869 5869 5868 5868 5868
5915 5915 5914 5914 5914 5913 5911 5907 5905 5903 5900 5897 5893 5889 5885 5882 5880 5879 5878 5876 5876 5876 5877 5878 5876 5875 5874 5869 5867 5868 5867 5866 5864 5864 5864 5863 5863 5862 5862 5862 5862 5862 5861
5912 5913 5913 5912 5911 5910 5908 5906 5903 5900 5897 5894 5890 5887 5885 5882 5878 5875 5873 5871 5870 5870 5869 5869 5870 5869 5868 5867 5864 5860 5860 5859 5858 5856 5855 5855 5854 5855 5854 5854 5853 5853 5853
5910 5911 5910 5909 5908 5907 5905 5903 5901 5898 5895 5892 5888 5884 5880 5877 5875 5873 5871 5869 5866 5863 5860 5859 5859 5859 5859 5858 5857 5855 5852 5850 5848 5847 5848 5846 5845 5844 5844 5844 5844 5844 5844
5907 5907 5906 5905 5903 5903 5903 5902 5899 5896 5892 5889 5886 5882 5878 5873 5869 5866 5863 5861 5858 5858 5856 5851 5850 5849 5849 5848 5845 5844 5842 5841 5840 5838 5837 5836 5835 5834 5833 5833 5832 5832 5831
5903 5903 5903 5902 5900 5899 5898 5897 5895 5891 5889 5885 5882 5878 5875 5871 5867 5862 5858 5854 5852 5851 5849 5846 5842 5840 5839 5838 5836 5834 5833 5832 5830 5827 5825 5823 5822 5821 5820 5819 5819 5819 5819
5898 5899 5899 5898 5897 5894 5892 5891 5889 5887 5884 5882 5879 5874 5870 5867 5863 5858 5854 5850 5847 5844 5839 5837 5834 5832 5831 5828 5827 5824 5822 5822 5821 5820 5817 5814 5811 5811 5809 5807 5805 5804 5803
5895 5895 5895 5893 5892 5890 5888 5886 5885 5882 5879 5876 5873 5870 5865 5860 5856 5852 5848 5844 5839 5837 5833 5830 5826 5823 5822 5820 5819 5817 5813 5810 5806 5803 5803 5800 5799 5796 5795 5794 5792 5790 5788
5890 5891 5890 5889 5887 5885 5883 5881 5880 5877 5873 5869 5866 5863 5858 5854 5849 5845 5842 5838 5834 5830 5827 5824 5820 5818 5815 5812 5809 5807 5804 5801 5798 5793 5792 5789 5784 5782 5781 5779 5776 5776 5773
5883 5883 5883 5881 5880 5879 5877 5875 5874 5871 5868 5864 5861 5857 5852 5848 5844 5840 5836 5832 5827 5824 5820 5817 5813 5810 5807 5803 5798 5795 5791 5790 5786 5779 5776 5774 5770 5766 5763 5761 5758 5755 5753
5879 5878 5877 5875 5874 5872 5871 5868 5866 5863 5861 5858 5854 5850 5845 5840 5836 5832 5828 5824 5819 5815 5810 5805 5803 5800 5797 5791 5788 5783 5779 5776 5772 5768 5764 5762 5756 5754 5750 5746 5742 5739 5736
5871 5871 5870 5869 5867 5866 5863 5861 5858 5856 5853 5849 5846 5842 5836 5832 5827 5823 5818 5813 5810 5805 5799 5796 5792 5788 5783 5778 5773 5769 5765 5761 5758 5752 5747 5747 5741 5738 5734 5731 5726 5723 5721
5865 5865 5863 5861 5860 5858 5856 5853 5850 5848 5845 5842 5838 5834 5828 5823 5817 5812 5807 5802 5798 5793 5787 5784 5779 5774 5770 5765 5761 5757 5752 5746 5743 5738 5730 5731 5726 5723 5720 5717 5713 5710 5708
5858 5857 5855 5853 5851 5850 5848 5846 5842 5840 5837 5834 5829 5824 5819 5814 5808 5802 5798 5794 5788 5783 5779 5774 5769 5764 5759 5754 5749 5744 5739 5733 5728 5725 5717 5716 5712 5709 5708 5705 5701 5697 5695